カタログに戻る

STARLINK-37254

運用中通信VLEO
NORAD 68553·PAYLOAD·🇺🇸 United States

打ち上げ Apr 2, 2026 から Cape Canaveral Space Force Station

Loading…

次のパス (今後24時間)

TLE

最新Source: CelesTrak SupGP

元期: Sep 15, 2026, 04:08 UTC

1 68553C 26070M   26258.17270833 -.00036235  00000+0 -10707-2 0  2581
2 68553  53.1573 198.5823 0001307  82.6255 147.5860 15.34405577    11

AllMySatでSTARLINK-37254をリアルタイム追跡

Download on the App Store